Weather Roundup
Issued by NWS

Home | Current Version | Previous Version | Text Only | Print | Product List | Glossary On
Versions: 1 2 3 4 5 6 7 8 9 10 11 12 13 14 15 16 17 18 19 20 21 22 23 24 25 26 27 28 29 30 31 32 33 34 35 36 37 38 39 40 41 42 43 44 45 46 47 48 49 50
000
NZUS93 KARX 012059
HRRWXR

CURRENT HOURLY OBSERVATIONS ACROSS
MUCH OF THE UPPER MISSISSIPPI VALLEY
NATIONAL WEATHER SERVICE LA CROSSE WI
400 PM CDT WED OCT 01 2014


...SOUTHEAST MINNESOTA...


CITY           SKY/WX    TMP DP  RH WIND       PRES   REMARKS
ROCHESTER      CLOUDY    57  55  93 S8        29.80F FOG
ROCHESTER/MAYO CLOUDY    55  55  97 SE7       29.80S
WINONA         CLOUDY    55  54  94 SE5       29.81S FOG
AUSTIN         CLOUDY    57  55  94 SE7       29.77F FOG
ALBERT LEA     CLOUDY    59  57  94 S8        29.77S FOG
DODGE CENTER   CLOUDY    59  55  88 S8        29.79S
PRESTON        CLOUDY    56  53  88 CALM      29.82R
OWATONNA       PTSUNNY   59  55  88 S8        29.77S FOG
FARIBAULT      CLOUDY    57  55  94 S8        29.77F FOG
$$

...ELSEWHERE IN MINNESOTA...


CITY           SKY/WX    TMP DP  RH WIND       PRES   REMARKS
MINNEAPOLIS    CLOUDY    55  53  93 SE8       29.77F
INTNL FALLS    CLOUDY    55  50  83 S8        29.67F
DULUTH         LGT RAIN  50  47  89 SE13      29.77F FOG
RED WING       CLOUDY    55  54  94 SE6       29.78F FOG
REDWOOD FALLS  MOSUNNY   70  57  63 SE14      29.71S
MANKATO        CLOUDY    59  54  82 S8        29.76S
WORTHINGTON    SUNNY     72  59  64 S12       29.74S
FAIRMONT       PTSUNNY   66  57  72 CALM      29.75F
$$

...SOUTHWEST WISCONSIN...


CITY           SKY/WX    TMP DP  RH WIND       PRES   REMARKS
LA CROSSE      CLOUDY    63  55  75 CALM      29.81F
PRAIRIE DU CHI MOSUNNY   68  52  56 SE8       29.81F
BOSCOBEL       CLOUDY    71  55  56 VRB6      29.82F
LONE ROCK      NOT AVBL
PLATTEVILLE    CLOUDY    71  56  57 S14G20    29.85S
FORT MC COY    CLOUDY    63  52  67 E5        29.83F
VIROQUA        MOCLDY    65  53  65 S8        29.83S
WIS DELLS      CLOUDY    66  51  59 SE6       29.84F
$$

...ELSEWHERE IN WISCONSIN...


CITY           SKY/WX    TMP DP  RH WIND       PRES   REMARKS
MILWAUKEE      PTSUNNY   60  51  72 SE17      29.93F
MADISON        PTSUNNY   69  53  56 SE14      29.86S
GREEN BAY      CLOUDY    60  52  74 SE14      29.92F
EAU CLAIRE     NOT AVBL
BLACK RVR FLS  CLOUDY    60  54  80 E3        29.83F
MEDFORD        DRIZZLE   54  50  86 SE7       29.85F
WAUSAU         CLOUDY    60  51  72 SE8       29.85F
WIS RAPIDS     CLOUDY    61  52  72 SE5       29.87F
MARSHFIELD     LGT RAIN  58  52  80 SE9       29.86S
RICE LAKE      DRIZZLE   51  50  94 SE6       29.83F
$$

...NORTHEAST IOWA...


CITY           SKY/WX    TMP DP  RH WIND       PRES   REMARKS
DECORAH        PTSUNNY   66  55  68 S8        29.80S
MASON CITY     CLOUDY    63  60  90 SE12      29.78F
CHARLES CITY   CLOUDY    63  57  82 SE6       29.80F
OELWEIN        MOSUNNY   72  59  64 S14       29.78F
$$

...ELSEWHERE IN IOWA...


CITY           SKY/WX    TMP DP  RH WIND       PRES   REMARKS
DES MOINES     CLOUDY    71  63  75 S5        29.74F
IOWA CITY      PTSUNNY   68  62  81 SE8       29.81F
FORT DODGE     MOSUNNY   72  63  73 S7        29.75S
$$

...NORTHERN ILLINOIS...


CITY           SKY/WX    TMP DP  RH WIND       PRES   REMARKS
CHICAGO-OHARE  PTSUNNY   67  52  58 SE14      29.91S
CHICAGO-MIDWAY PTSUNNY   71  54  54 SE10      29.91F
MOLINE         CLOUDY    72  58  61 S8        29.82R
ROCKFORD       CLOUDY    72  53  51 SE14      29.88R
PEORIA         CLOUDY    78  61  55 SW5       29.84F
$$

NOTE: "FAIR" INDICATES FEW OR NO CLOUDS BELOW 12,000 FEET WITH NO
SIGNIFICANT WEATHER AND/OR OBSTRUCTIONS TO VISIBILITY. WIND
SPEEDS ARE IN MILES-PER-HOUR.



USA.gov is the U.S. government's official web portal to all federal, state and local government web resources and services.